Flag for U.S.A. Weather past 2 weeks in Palestine, Texas, U.S.A.

Now
59 °F

Sunny.


Feels Like: 57 °F
Forecast: 41 / 68 °F
Wind: 14 mph from Southeast

Location: Palestine Municipal Airport


UV Index: 7 (High)

Visibility: 10 mi


Pressure: 30.20 "Hg

Humidity: 35%

Dew point: 32 °F

Location of PalestineLocation

Historic Weather in Palestine

°F

Palestine temperature yesterday

Maximum temperature yesterday: 62 °F (at 4:55 PM)
Minimum temperature yesterday: 32 °F (at 7:15 AM)
Average temperature yesterday: 47 °F

Past Weeks' High & Low Weather Summary

 TemperatureHumidityPressure
High82 °F (Apr 10, 4:15 PM)92% (Apr 8, 3:55 AM)30.35 "Hg (Apr 8, 3:55 AM)
Low32 °F (Apr 15, 7:15 AM)21% (Apr 8, 5:55 PM)29.69 "Hg (Apr 13, 5:35 PM)
Average62 °F66%29.99 "Hg
* Reported Apr 1 10:15 AM — Apr 16 10:55 AM, Palestine, Weather by CustomWeather, © 2014

Note: Actual official high and low records may vary slightly from our data, if they occured in-between our weather recording intervals... More about our weather records

Advertising

Historic Weather Conditions — Data for Previous 24 hours

 ConditionsComfort  
Time TempWeatherWind HumidityBarometerVisibility
10:55 AM
Apr 16
58 °FSunny.9 mph41%30.20 "Hg7 mi
10:35 AM56 °FSunny.9 mph41%30.21 "Hg4 mi
10:15 AM55 °FSunny.12 mph44%30.21 "Hg4 mi
9:55 AM54 °FSunny.9 mph46%30.22 "Hg7 mi
9:35 AM53 °FSunny.10 mph51%30.22 "Hg7 mi
9:15 AM50 °FSunny.9 mph52%30.22 "Hg10 mi
8:55 AM49 °FSunny.7 mph54%30.22 "Hg10 mi
8:15 AM46 °FSunny.10 mph58%30.21 "Hg7 mi
7:55 AM45 °FSunny.8 mph61%30.20 "Hg7 mi
7:35 AM44 °FClear.8 mph62%30.19 "Hg10 mi
7:15 AM45 °FClear.10 mph61%30.18 "Hg10 mi
6:55 AM45 °FClear.10 mph61%30.18 "Hg10 mi
6:35 AM45 °FClear.8 mph60%30.18 "Hg10 mi
6:15 AM45 °FClear.7 mph59%30.17 "Hg10 mi
5:55 AM45 °FClear.6 mph60%30.16 "Hg10 mi
5:35 AM45 °FClear.7 mph61%30.16 "Hg10 mi
5:15 AM45 °FClear.6 mph60%30.17 "Hg10 mi
4:55 AM45 °FClear.6 mph60%30.17 "Hg10 mi
4:35 AM45 °FClear.5 mph61%30.17 "Hg10 mi
4:15 AM44 °FClear.6 mph62%30.17 "Hg10 mi
3:55 AM45 °FClear.5 mph60%30.17 "Hg10 mi
3:35 AM45 °FClear.5 mph60%30.16 "Hg10 mi
3:15 AM45 °FClear.5 mph61%30.15 "Hg10 mi
2:55 AM44 °FClear.3 mph67%30.15 "Hg10 mi
2:15 AM39 °FClear.No wind87%30.15 "Hg10 mi
1:55 AM40 °FClear.No wind86%30.16 "Hg10 mi
1:35 AM39 °FClear.No wind89%30.17 "Hg10 mi
1:15 AM40 °FClear.No wind87%30.17 "Hg10 mi
12:55 AM40 °FClear.No wind87%30.18 "Hg10 mi
12:15 AM42 °FClear.No wind85%30.18 "Hg10 mi
11:55 PM
Apr 15
42 °FClear.No wind83%30.19 "Hg10 mi
11:35 PM42 °FClear.No wind84%30.19 "Hg10 mi
11:15 PM43 °FClear.No wind83%30.20 "Hg10 mi
10:55 PM44 °FClear.No wind79%30.20 "Hg10 mi
10:15 PM45 °FClear.No wind80%30.20 "Hg10 mi
9:55 PM46 °FClear.No wind78%30.20 "Hg10 mi
9:35 PM47 °FClear.No wind71%30.20 "Hg10 mi
9:15 PM47 °FClear.No wind74%30.20 "Hg10 mi
8:55 PM49 °FClear.No wind67%30.19 "Hg10 mi
8:35 PM52 °FSunny.No wind57%30.19 "Hg10 mi
8:15 PM55 °FSunny.No wind41%30.18 "Hg10 mi
7:55 PM56 °FSunny.5 mph39%30.18 "Hg10 mi
5:55 PM62 °FSunny.No wind24%30.20 "Hg10 mi
5:35 PM61 °FSunny.No wind24%30.20 "Hg10 mi
5:15 PM62 °FSunny.6 mph23%30.20 "Hg10 mi
4:55 PM62 °FSunny.6 mph25%30.21 "Hg10 mi
4:15 PM61 °FSunny.No wind24%30.22 "Hg10 mi
3:55 PM62 °FSunny.7 mph25%30.23 "Hg10 mi
3:35 PM61 °FSunny.No wind25%30.24 "Hg10 mi
3:20 PM60 °FSunny.3 mph25%30.25 "Hg10 mi
2:55 PM61 °FSunny.9 mph26%30.26 "Hg10 mi
2:35 PM60 °FSunny.8 mph28%30.27 "Hg10 mi
2:15 PM58 °FSunny.3 mph25%30.28 "Hg10 mi
1:55 PM58 °FSunny.12 mph26%30.28 "Hg10 mi
1:35 PM58 °FSunny.7 mph27%30.30 "Hg10 mi
1:15 PM58 °FSunny.7 mph29%30.31 "Hg10 mi
12:55 PM56 °FSunny.3 mph27%30.32 "Hg10 mi
12:35 PM56 °FSunny.No wind27%30.33 "Hg10 mi
12:15 PM56 °FSunny.7 mph29%30.33 "Hg10 mi
Weather by CustomWeather, © 2014

See weather overview